Wetbulb
51.21 50.92 52.89 51.39 48.86 53.03 48.86 49.14 48.42 51.53 53.81 58.59 59.65 60.66 62.19 63.90 64.37 63.73 66.00 67.05 67.03 68.69 69.48 70.38 69.82 71.26 72.40 72.83 73.34 74.24 74.27 76.00
51.08 52.29 51.58 53.41 54.44 46.91 49.20 43.43 42.16 48.36 50.52 53.39 55.86 58.64 61.50 62.49 63.31 64.23 66.03 67.02 67.50 68.54 69.79 70.71 70.35 71.84 72.84 73.45 73.39 73.99 74.85 75.27
49.89 49.41 48.68 49.67 49.66 49.53 50.39 48.61 44.82 44.74 49.95 58.33 58.54 59.57 60.67 62.54 63.68 64.45 65.44 66.31 67.75 67.77 70.20 71.08 71.44 71.22 72.91 73.18 73.19 73.42 74.45 75.36
47.21 49.99 49.41 49.35 48.65 50.05 47.22 45.39 49.33 49.55 49.49 58.54 59.84 60.84 61.53 61.72 63.48 65.40 66.14 67.14 67.87 68.04 68.96 69.48 70.33 71.15 72.10 73.52 73.54 73.90 74.35 74.68
45.07 47.74 48.83 47.07 47.33 47.45 48.25 52.22 49.33 46.07 49.21 58.31 60.74 59.99 60.08 60.21 62.53 64.32 65.51 66.56 67.54 67.36 68.23 69.20 68.58 67.83 68.39 70.06 70.88 72.34 73.10 73.25
41.63 45.03 46.48 44.58 45.68 46.82 47.55 47.73 49.35 49.65 52.03 54.99 57.21 58.71 58.71 60.45 61.93 62.30 63.48 63.77 65.07 66.54 67.63 67.14 68.03 68.25 68.36 68.71 69.41 70.59 70.80 69.13
45.63 46.22 46.06 45.33 45.51 49.73 47.01 47.92 48.94 51.78 52.93 56.14 57.48 58.12 58.88 60.92 61.55 60.92 60.78 61.87 63.15 64.15 65.66 66.19 66.41 66.75 67.07 67.43 67.88 69.27 68.73 68.61
44.83 46.61 47.01 44.30 46.49 49.25 50.50 50.71 51.56 51.83 53.31 57.99 60.54 60.27 59.07 59.56 59.44 60.32 60.29 61.17 61.30 62.26 63.86 64.79 65.58 65.86 64.87 64.74 65.41 66.77 66.02 67.26
41.94 45.20 45.99 42.90 45.71 47.57 51.24 53.41 53.35 51.06 54.05 58.14 58.06 57.83 58.38 58.78 59.76 59.71 59.78 59.47 60.40 61.40 61.91 63.84 64.60 64.57 62.92 62.32 61.38 60.93 60.63 62.88
42.98 44.75 37.39 46.22 50.89 52.13 51.78 53.54 55.44 55.60 55.93 58.18 57.91 59.29 60.06 62.34 61.60 58.94 58.35 58.91 58.66 58.01 57.85 57.85 58.46 58.91 58.94 57.43 58.04 58.19 57.97 60.14
41.30 40.53 43.19 45.88 47.47 47.54 47.28 47.69 54.50 55.52 56.79 57.80 59.33 59.16 58.60 61.43 59.07 58.28 57.87 57.88 56.90 56.39 56.25 56.79 56.87 57.36 57.04 57.23 56.08 55.94 56.14 57.58
40.84 37.44 35.32 44.67 48.80 52.18 52.14 44.73 55.68 57.24 56.92 57.69 58.42 52.57 51.56 54.95 55.22 55.01 56.61 56.26 55.09 54.86 55.61 55.20 54.70 55.18 54.84 54.86 55.16 54.45 55.35 55.40
40.93 39.40 41.38 47.46 50.89 52.12 42.97 46.18 56.03 58.17 58.36 58.56 57.64 59.52 56.54 54.36 53.39 55.28 56.23 55.34 54.14 53.88 52.42 52.65 53.53 53.33 51.37 52.02 51.85 52.49 55.22 55.19
39.35 38.36 35.65 50.13 51.10 46.18 50.94 54.08 55.98 58.43 58.96 58.85 55.72 57.83 57.13 55.90 52.23 52.93 52.89 53.68 53.43 51.35 50.76 51.59 52.03 51.79 51.42 49.86 52.31 53.04 54.01 53.45
43.31 43.81 48.44 50.66 51.14 54.68 55.19 54.90 57.08 58.86 57.78 56.25 55.84 55.57 55.74 55.40 54.75 52.03 52.24 52.82 52.84 51.35 50.85 51.03 51.66 51.57 49.42 51.00 52.23 51.66 52.27 52.15
45.92 48.29 49.63 50.93 52.93 54.72 54.79 54.77 55.96 58.33 56.51 56.40 54.41 53.58 53.58 52.68 53.49 53.84 54.53 53.73 54.00 53.33 52.25 51.82 52.72 52.94 52.42 52.35 53.02 52.94 51.60 50.99
45.69 48.02 49.46 50.66 52.12 52.51 54.80 56.13 56.67 56.60 56.14 55.79 55.13 53.58 51.95 50.62 52.55 51.64 52.86 53.35 53.73 52.98 52.37 51.49 51.99 52.22 52.44 52.11 52.38 51.00 50.07 50.93
47.31 48.97 49.57 49.75 51.69 52.85 54.35 54.97 56.14 56.07 54.84 55.50 55.67 53.11 52.82 51.15 51.41 50.60 50.44 51.26 52.54 52.87 52.24 51.29 51.24 51.14 51.60 51.84 51.98 51.18 50.01 49.58
49.86 50.46 50.41 50.71 51.78 52.35 52.93 54.14 54.64 55.82 56.73 54.84 55.41 55.53 56.55 54.95 54.01 52.38 51.91 51.19 51.05 50.08 49.99 49.67 50.00 50.76 51.55 51.70 51.91 51.16 49.98 49.46
MSLP
1008.52 1008.40 1008.41 1008.86 1008.83 1008.30 1008.14 1009.12 1009.09 1009.78 1010.34 1010.92 1011.69 1011.63 1011.71 1012.03 1012.91 1014.01 1014.72 1015.09 1015.55 1015.71 1015.88 1016.30 1017.05 1017.55 1017.95 1018.60 1019.28 1019.83 1020.10 1020.48
1008.20 1008.47 1008.66 1008.15 1008.06 1008.32 1008.08 1007.92 1008.30 1009.55 1009.99 1010.00 1011.31 1011.51 1011.66 1011.98 1012.44 1013.47 1014.51 1015.03 1015.57 1015.75 1016.01 1016.37 1016.91 1017.40 1017.81 1018.28 1018.78 1019.34 1019.83 1020.13
1008.44 1008.32 1008.30 1008.46 1008.09 1008.15 1007.72 1007.91 1007.53 1008.68 1009.56 1010.49 1010.95 1011.62 1012.02 1012.12 1012.55 1013.27 1014.17 1014.84 1015.38 1015.94 1016.14 1016.49 1016.98 1017.49 1017.77 1018.16 1018.67 1019.05 1019.54 1020.03
1008.80 1009.01 1009.22 1008.77 1008.51 1008.13 1007.40 1008.14 1008.40 1008.69 1009.80 1010.98 1011.55 1012.05 1012.64 1012.97 1013.40 1013.59 1014.20 1015.05 1015.44 1016.03 1016.58 1016.95 1017.34 1017.62 1017.96 1018.33 1018.60 1018.82 1019.15 1019.97
1009.15 1009.51 1009.49 1009.21 1009.23 1008.94 1008.44 1008.00 1008.01 1008.43 1009.86 1011.36 1011.80 1012.59 1013.28 1013.71 1014.06 1014.42 1014.82 1015.48 1015.82 1016.30 1016.81 1017.17 1017.72 1018.30 1018.53 1018.84 1019.20 1019.40 1019.51 1020.08
1009.61 1009.65 1010.00 1009.71 1009.57 1009.24 1008.56 1007.86 1007.90 1008.39 1009.69 1011.27 1011.99 1012.70 1013.75 1014.16 1014.54 1015.10 1015.30 1015.75 1016.42 1016.80 1016.99 1017.66 1017.86 1018.27 1018.67 1018.72 1019.54 1019.91 1019.87 1020.50
1010.76 1010.66 1010.48 1010.24 1009.94 1009.48 1008.98 1008.59 1008.14 1008.33 1009.14 1009.87 1011.49 1012.76 1013.86 1014.59 1015.22 1015.79 1016.40 1016.58 1016.88 1017.32 1017.64 1018.08 1018.21 1018.52 1018.65 1018.98 1019.44 1020.45 1020.46 1020.56
1011.33 1011.30 1011.10 1010.61 1010.07 1009.70 1009.70 1009.56 1009.20 1009.35 1009.76 1010.75 1011.92 1013.32 1014.29 1014.98 1015.69 1016.25 1016.84 1017.40 1017.71 1018.18 1018.37 1018.41 1018.56 1018.82 1018.84 1019.47 1020.28 1021.07 1020.72 1021.03
1011.52 1011.78 1011.30 1010.95 1010.63 1010.23 1010.34 1010.43 1010.33 1010.01 1010.89 1011.79 1012.70 1013.25 1014.14 1015.00 1015.78 1016.47 1017.39 1017.93 1018.26 1018.49 1018.72 1018.95 1019.24 1019.73 1019.66 1019.77 1020.71 1021.25 1021.52 1021.67
1011.92 1011.90 1011.35 1011.14 1011.43 1010.93 1010.88 1011.06 1011.09 1011.07 1011.36 1012.04 1013.07 1014.01 1014.56 1015.04 1015.72 1016.79 1017.83 1018.41 1018.74 1019.21 1019.53 1019.81 1020.10 1020.62 1021.04 1020.69 1021.30 1021.08 1021.91 1022.09
1012.50 1012.19 1012.23 1011.63 1011.88 1011.80 1011.47 1011.41 1011.44 1011.64 1012.00 1012.75 1013.46 1014.37 1015.28 1015.94 1016.45 1017.14 1017.99 1018.75 1019.56 1020.10 1020.43 1020.63 1020.78 1021.23 1021.28 1022.00 1022.44 1022.58 1022.84 1023.18
1013.39 1012.74 1012.26 1012.39 1012.59 1012.61 1012.51 1011.74 1011.70 1012.22 1012.49 1013.00 1013.61 1014.55 1016.24 1016.88 1017.25 1018.15 1018.77 1019.26 1020.04 1020.90 1021.34 1021.35 1021.74 1022.15 1022.34 1022.76 1023.07 1023.34 1023.64 1023.90
1013.69 1013.46 1013.21 1013.28 1013.34 1013.07 1012.88 1013.04 1012.43 1012.70 1012.75 1013.37 1013.79 1013.79 1016.10 1017.23 1018.21 1018.81 1019.47 1020.18 1020.79 1021.45 1022.03 1022.47 1022.78 1022.64 1022.88 1023.29 1023.66 1023.75 1023.86 1024.00
1014.65 1014.28 1014.19 1014.08 1013.62 1013.65 1013.87 1013.63 1013.49 1013.33 1013.72 1014.25 1015.04 1015.32 1016.22 1017.55 1018.62 1019.25 1020.09 1020.76 1021.66 1021.86 1022.66 1023.11 1023.31 1023.47 1023.72 1024.06 1024.22 1024.33 1024.64 1024.72
1014.95 1014.51 1014.74 1014.77 1014.63 1014.40 1014.27 1014.10 1013.94 1013.88 1014.41 1014.97 1015.71 1016.83 1017.71 1018.27 1018.96 1019.90 1020.45 1021.26 1021.95 1022.54 1022.77 1023.51 1023.91 1024.03 1024.21 1024.90 1025.00 1025.12 1025.26 1025.38
1015.45 1015.18 1014.99 1014.91 1014.94 1015.01 1014.93 1014.56 1014.53 1014.47 1014.86 1015.25 1016.27 1017.12 1018.50 1019.35 1019.84 1020.46 1021.06 1021.69 1022.22 1022.75 1023.17 1023.60 1024.03 1024.25 1024.70 1025.18 1025.31 1025.49 1025.69 1025.90
1015.53 1015.46 1015.39 1015.15 1015.16 1015.31 1015.25 1015.16 1015.12 1015.32 1015.53 1015.90 1016.40 1017.86 1018.51 1019.68 1020.80 1021.48 1021.72 1022.25 1022.63 1022.92 1023.35 1023.92 1024.23 1024.41 1024.75 1025.04 1025.22 1025.37 1025.55 1025.71
1015.35 1015.52 1015.60 1015.65 1015.73 1015.60 1015.41 1015.44 1015.66 1015.76 1016.16 1016.82 1017.18 1017.67 1018.78 1019.49 1021.00 1021.85 1022.64 1022.82 1022.93 1023.30 1023.60 1024.09 1024.41 1024.76 1025.16 1025.35 1025.41 1025.37 1025.58 1025.92
1015.61 1015.88 1015.96 1016.07 1016.05 1015.88 1015.71 1015.79 1016.11 1016.20 1016.44 1016.89 1017.49 1018.08 1018.62 1019.02 1019.79 1020.74 1021.95 1022.48 1022.79 1023.39 1023.86 1024.24 1024.56 1024.99 1025.46 1025.65 1025.78 1025.84 1025.85 1026.07
Wind_Speed
6 4 10 8 9 4 4 1 5 3 3 5 3 5 10 16 19 19 17 10 9 9 10 11 11 13 13 12 11 11 11 8
3 4 2 7 6 8 4 8 8 4 4 4 6 7 11 16 21 21 18 13 10 9 9 7 6 10 12 13 13 13 11 9
3 2 2 5 5 2 3 3 9 4 4 2 7 9 11 14 16 18 19 16 11 7 7 7 7 8 11 11 12 13 12 9
4 3 2 1 1 5 7 7 1 4 3 3 4 9 9 9 9 12 14 13 11 7 5 5 4 5 9 9 10 11 11 8
4 5 3 3 3 1 1 1 8 9 3 1 9 11 8 9 10 10 9 8 6 4 2 6 6 7 7 8 7 8 10 9
6 3 1 0 4 2 6 6 6 6 6 9 13 14 12 12 10 8 6 5 3 4 4 5 9 11 12 12 9 9 11 9
5 5 3 5 6 3 6 2 8 7 11 15 18 17 14 11 9 9 6 5 3 1 1 6 6 9 11 12 10 8 9 10
4 2 3 2 6 4 5 3 6 3 7 5 15 15 13 12 12 10 8 7 7 5 3 6 7 4 10 9 7 4 9 9
3 4 4 6 6 9 6 4 5 3 4 9 14 17 15 12 12 11 9 8 7 8 6 5 7 9 9 12 8 9 7 8
2 1 9 5 1 4 5 3 3 5 1 10 12 11 12 14 15 13 11 10 8 8 9 9 11 12 12 12 7 10 8 8
3 4 4 4 2 4 4 5 4 3 8 14 16 15 10 11 12 14 12 11 10 9 9 11 11 11 14 12 8 10 11 8
3 3 5 4 3 8 1 5 1 4 11 17 17 8 4 11 14 13 13 12 12 10 8 10 10 9 11 9 9 8 8 5
3 3 4 0 8 5 6 3 4 6 12 15 11 1 13 13 12 11 11 14 12 10 8 7 5 9 10 8 8 7 5 7
3 3 5 6 2 4 5 3 6 5 5 9 8 16 18 17 13 14 15 15 12 11 8 7 7 8 10 9 7 7 6 7
4 1 2 3 3 5 7 6 1 7 10 13 14 14 13 15 15 12 13 11 11 10 11 7 6 6 10 6 7 8 8 8
3 3 3 3 2 4 5 4 3 8 13 15 15 16 14 10 12 12 12 12 12 12 11 9 8 9 9 8 8 8 9 8
2 3 3 2 4 7 6 5 8 8 10 13 16 14 15 12 9 7 9 9 10 10 11 11 8 8 7 7 7 9 8 7
2 2 1 3 5 5 4 5 5 10 11 10 14 19 19 16 6 6 6 8 9 9 10 10 9 9 8 6 6 8 8 5
2 5 5 4 5 3 2 2 3 3 6 12 12 13 15 14 15 14 10 11 9 10 10 11 11 10 8 8 8 8 8 7
Wind_Direction
222 179 191 176 219 291 122 66 215 161 218 211 193 210 193 191 181 184 176 148 155 170 179 184 175 193 194 192 201 204 198 199
138 162 139 224 153 196 238 177 215 186 261 235 202 191 184 188 189 187 184 172 164 162 162 167 177 187 190 188 194 200 200 197
212 60 174 166 196 185 228 286 227 191 224 131 188 185 187 190 191 187 187 195 172 159 175 160 159 176 182 183 185 196 201 195
69 21 275 294 70 223 229 180 281 292 197 157 191 173 173 181 180 196 194 188 200 190 177 201 177 165 172 184 189 194 181 172
164 162 152 55 18 43 184 175 201 225 191 99 178 162 160 169 177 183 168 165 161 163 187 217 172 133 120 126 150 155 140 143
277 84 84 28 6 329 250 216 184 229 167 186 185 178 170 174 167 145 148 135 169 180 172 156 174 153 135 121 124 128 119 118
97 102 113 80 28 29 229 283 234 187 204 193 186 178 171 151 150 135 143 146 153 160 132 145 145 153 134 123 111 120 114 106
158 319 270 30 42 47 39 308 249 277 220 297 162 158 154 149 147 152 153 155 148 136 150 139 130 121 117 114 98 142 103 97
200 352 294 214 37 45 336 309 308 228 39 151 169 166 156 153 155 146 143 137 139 133 114 105 107 124 118 99 104 101 84 99
100 278 239 69 6 65 56 312 268 295 278 174 159 154 150 159 148 142 139 125 96 92 92 87 89 90 83 77 75 88 84 84
215 202 320 156 67 338 10 322 329 304 144 152 140 127 132 139 130 127 122 104 92 85 90 92 88 92 95 90 72 81 79 73
148 214 239 80 345 345 276 282 29 189 166 163 152 154 140 135 126 121 114 111 107 96 89 93 91 93 97 102 103 83 78 78
148 237 281 53 314 294 232 39 311 213 171 170 185 127 145 123 106 109 118 117 111 99 94 78 81 110 92 89 69 82 76 64
137 212 245 12 284 285 11 296 293 222 173 158 108 130 137 136 128 121 123 124 118 110 96 98 97 97 103 92 99 82 77 73
238 58 352 313 301 321 318 295 203 175 154 134 128 131 138 141 134 125 121 121 122 117 110 100 100 107 108 110 113 110 107 96
210 158 275 319 326 36 349 308 194 159 146 137 136 136 137 134 134 133 133 136 135 133 126 121 118 112 114 129 125 120 114 109
248 240 278 279 9 0 41 79 116 124 144 145 139 142 131 107 118 113 134 145 152 145 137 132 129 118 120 120 123 111 103 100
198 94 352 68 338 354 34 61 118 135 138 154 160 150 137 127 147 149 189 168 164 155 146 144 143 140 140 143 139 130 120 114
163 151 120 92 49 22 40 71 113 158 165 166 175 167 164 154 168 177 175 173 172 173 159 162 158 153 153 153 152 147 133 129